Tracking 19192 objects as of 18-Jun-2018
HD Live streaming from Space Station
objects crossing your sky now

FENGYUN 1C DEB

Track FENGYUN 1C DEB now!
10-day predictions


NORAD ID: 31181
Int'l Code: 1999-025BJK
Perigee: 847.7 km
Apogee: 924.3 km
Inclination: 99.0 °
Period: 102.5 minutes
Semi major axis: 7257 km
RCS: 0.02 m2 (small)
Launch date: May 10, 1999
Source: People's Republic of China (PRC)
Launch site: Taiyaun Space Center, China (TSC)

Note: This is SATELLITE DEBRIS
aabbcc
Your satellite tracking list
Your tracking list is empty




NASA's NSSDC Master Catalog

Two Line Element Set (TLE):
1 31181U 99025BJK 18169.07040625  .00000227  00000-0  16819-3 0  9997
2 31181  99.0156 210.3762 0052752 171.8785 217.8034 14.04319201573651
Source of the keplerian elements: AFSPC